Terminal Aerodrome Forecast
Issued by NWS Twin Cities, MN

Home | Current Version | Previous Version | Graphics & Text | Print | Product List | Glossary On
Versions: 1 2 3 4 5 6 7 8 9 10 11 12 13 14 15 16 17 18 19 20 21 22
000
FTUS43 KMPX 240205 AAA
TAFEAU
TAF AMD
KEAU 240205Z 2402/2424 VRB03KT 4SM BR SKC
     FM240800 00000KT 1/2SM FZFG VV005
     FM241500 10007KT P6SM SCT008 BKN015 OVC100
     FM242300 09009KT 4SM -SN OVC015=

USA.gov is the U.S. government's official web portal to all federal, state and local government web resources and services.